Tegucigalpa, Honduras

11:06 AM CST on September 26, 2017 (GMT -0600)
Toncontin International

Weather History for MHTG - August, 2013

Change the Weather History Date:

Thursday, August 29, 2013

  Actual Average Record
Temperature  
Mean Temperature 74 °F -  
Max Temperature 83 °F 81 °F 88 °F (2015)
Min Temperature 64 °F 62 °F 61 °F (2017)
Cooling Degree Days 8    
Growing Degree Days 24 (Base 50)    
Moisture  
Dew Point 65 °F    
Average Humidity 77    
Maximum Humidity 100    
Minimum Humidity 45    
Precipitation  
Precipitation 0.00 in 0.23 in - ()
Sea Level Pressure  
Sea Level Pressure 30.05 in    
Wind  
Wind Speed 2 mph ()    
Max Wind Speed 9 mph    
Max Gust Speed -    
Visibility 6.1 miles    
Events      
Averages and records for this station are not official NWS values.
T = Trace of Precipitation, MM = Missing Value Source: Averaged Metar Reports

Daily Weather History Graph

Daily Weather History Graph

Search for Another Location

Airport or City:

Trip Planner

Search our weather history database for the weather conditions in past years. The results will help you decide how hot, cold, wet, or windy it might be!

Date:

Astronomy

Aug. 29, 2013 Rise Set
Actual Time 5:36 AM CST 6:02 PM CST
Civil Twilight 5:15 AM CST 6:23 PM CST
Nautical Twilight 4:50 AM CST 6:49 PM CST
Astronomical Twilight 4:24 AM CST 7:14 PM CST
Moon No Moon Rise 1:01 PM CST (8/29)
Length of Visible Light 13h 08m
Length of Day
12h 25m
Last Quarter, 37% of the Moon is Illuminated
Aug 29
Last Quarter
Sep 5
New
Sep 12
First Quarter
Sep 19
Full
Sep 26
Last Quarter

Hourly Weather History & Observations

Time (CST) Temp. Heat Index Dew Point Humidity Pressure Visibility Wind Dir Wind Speed Gust Speed Precip Events Conditions
12:00 AM 66 °F - 65 °F 94% 30.01 in 6 mi WSW 2.3 mph - -   Haze
12:00 AM 66.2 °F - 64.4 °F 94% 30.12 in 6.2 mi WSW 2.3 mph - N/A   Scattered Clouds
1:00 AM 66.2 °F - 64.4 °F 94% 30.12 in 6.2 mi Calm Calm - N/A   Mostly Cloudy
2:00 AM 66.2 °F - 64.4 °F 94% 30.09 in 6.2 mi Calm Calm - N/A   Mostly Cloudy
3:00 AM 66 °F - 65 °F 94% 29.97 in 6 mi Calm Calm - -   Haze
3:00 AM 66.2 °F - 64.4 °F 94% 30.09 in 6.2 mi Calm Calm - N/A   Mostly Cloudy
4:00 AM 66.2 °F - 64.4 °F 94% 30.09 in 6.2 mi Calm Calm - N/A   Mostly Cloudy
5:00 AM 64.4 °F - 62.6 °F 94% 30.06 in 6.2 mi Calm Calm - N/A   Scattered Clouds
6:00 AM 65 °F - 64 °F 96% 29.98 in 2 mi Calm Calm - -   Mist
6:00 AM 64.4 °F - 64.4 °F 100% 30.09 in 6.2 mi Calm Calm - N/A   Mostly Cloudy
7:00 AM 66.2 °F - 66.2 °F 100% 30.09 in 6.2 mi Calm Calm - N/A   Mostly Cloudy
8:00 AM 71.6 °F - 68.0 °F 88% 30.12 in 5.0 mi North 6.9 mph - N/A   Scattered Clouds
9:00 AM 73 °F - 69 °F 82% 29.99 in 6 mi Calm Calm - -   Haze
9:00 AM 73.4 °F - 68.0 °F 83% 30.12 in 6.2 mi Calm Calm - N/A   Mostly Cloudy
10:00 AM 78.8 °F - 68.0 °F 69% 30.12 in 6.2 mi Calm Calm - N/A   Scattered Clouds
11:00 AM 78.8 °F - 66.2 °F 65% 30.12 in 6.2 mi NE 6.9 mph - N/A   Mostly Cloudy
12:00 PM 80 °F - 64 °F 48% 29.93 in 6 mi NE 6.9 mph - -   Haze
12:00 PM 80.6 °F 82.3 °F 64.4 °F 58% 30.12 in 6.2 mi NE 6.9 mph - N/A   Mostly Cloudy
1:00 PM 80.6 °F 81.8 °F 62.6 °F 54% 30.09 in 6.2 mi NE 6.9 mph - N/A   Mostly Cloudy
2:00 PM 82.4 °F 83.4 °F 62.6 °F 51% 30.04 in 6.2 mi North 8.1 mph - N/A   Mostly Cloudy
3:00 PM 82 °F - 64 °F 45% 29.82 in 9 mi North 5.8 mph - -   Haze
3:00 PM 82.4 °F 83.9 °F 64.4 °F 54% 30.01 in 6.2 mi North 5.8 mph - N/A   Scattered Clouds
4:00 PM 82.4 °F 83.4 °F 62.6 °F 51% 30.01 in 6.2 mi ENE 3.5 mph - N/A   Scattered Clouds
5:00 PM 78.8 °F - 62.6 °F 57% 30.01 in 6.2 mi ESE 3.5 mph - N/A   Mostly Cloudy
6:00 PM 76 °F - 63 °F 55% 29.87 in 7 mi East 4.6 mph - -   Haze
6:00 PM 75.2 °F - 62.6 °F 65% 30.04 in 6.2 mi East 4.6 mph - N/A   Mostly Cloudy
7:00 PM 73.4 °F - 62.6 °F 69% 30.06 in 6.2 mi SSE 3.5 mph - N/A   Scattered Clouds
8:00 PM 73.4 °F - 66.2 °F 78% 30.09 in 6.2 mi SW 3.5 mph - N/A   Scattered Clouds
9:00 PM 71.6 °F - 66.2 °F 83% 30.12 in 6.2 mi South 4.6 mph - N/A   Scattered Clouds
10:00 PM 69.8 °F - 68.0 °F 94% 30.12 in 6.2 mi West 9.2 mph - N/A   Mostly Cloudy
11:00 PM 68.0 °F - 66.2 °F 94% 30.09 in 6.2 mi SW 4.6 mph - N/A   Partly Cloudy